Theta_e
298 296 296 295 295 295 295 295 295 295 294 294 294 294 294 294 294 293 293 292 291 290 290 290 290 289 290 290 289 289 289 289 288 288 287 287 287 286 286 286 286 286
298 297 296 295 295 294 294 294 295 294 294 294 293 294 293 293 293 293 292 291 291 290 290 289 289 289 290 289 289 289 289 289 288 287 287 287 286 286 286 286 286 286
299 297 296 295 295 294 294 294 294 294 293 293 293 293 293 293 293 292 292 291 290 290 289 289 289 289 289 289 289 289 289 288 287 287 286 286 286 286 286 286 286 286
301 299 297 296 295 294 294 294 294 294 293 293 293 293 293 293 292 292 291 290 290 289 289 289 289 289 289 289 289 289 288 288 287 287 286 286 286 286 286 286 286 286
303 300 298 296 295 294 294 294 294 294 293 293 293 292 292 292 292 291 291 290 290 289 289 289 289 289 289 289 289 289 288 288 287 286 286 286 286 286 286 286 286 286
303 301 299 297 295 294 294 294 293 293 293 292 292 292 292 292 292 291 290 290 289 289 289 289 289 289 289 289 289 288 288 287 287 286 286 286 286 286 286 285 285 285
303 301 299 297 295 294 294 293 293 293 293 292 292 292 292 292 291 291 290 289 289 289 289 289 289 289 289 289 288 288 287 287 286 286 286 286 286 286 285 285 285 285
302 300 299 297 296 294 294 293 293 293 292 292 291 291 291 291 291 290 290 289 289 289 289 289 289 288 288 288 288 287 287 286 286 286 286 286 285 285 285 285 285 285
300 299 299 297 296 295 294 293 293 292 292 291 291 291 291 291 290 290 290 289 289 289 289 289 288 288 288 288 287 287 287 286 286 286 286 285 285 285 284 284 284 284
299 299 298 297 296 295 294 293 293 292 292 291 291 291 290 290 290 290 289 289 289 289 289 288 288 288 288 287 287 287 286 286 285 285 285 285 284 284 284 284 284 284
299 299 298 298 297 295 294 293 292 292 291 291 291 290 290 290 290 289 289 289 289 288 288 288 288 288 287 287 287 286 286 285 285 285 285 284 284 284 284 283 283 283
299 299 299 298 297 295 294 293 292 291 291 290 290 290 290 290 290 289 289 289 288 288 288 288 287 287 287 287 286 286 285 285 285 284 284 284 284 283 283 283 282 282
299 299 299 297 296 294 293 292 291 291 290 290 290 290 290 290 289 289 289 288 288 288 288 287 287 287 286 286 286 285 285 284 284 284 284 283 283 283 282 282 282 282
298 298 297 296 295 293 292 291 291 291 290 290 290 289 289 289 289 289 288 288 288 288 287 287 287 286 286 286 285 285 284 284 284 283 283 283 282 282 282 282 282 282
297 296 295 294 293 292 291 291 291 290 290 290 289 289 289 289 288 288 288 288 287 287 287 286 286 286 285 285 285 284 284 283 283 283 282 282 282 282 281 281 281 281
295 294 294 293 292 292 291 291 291 290 290 289 289 289 289 288 288 288 288 288 287 287 286 286 286 285 285 285 284 284 283 283 282 282 282 281 281 281 281 281 281 281
295 294 294 293 292 291 291 290 290 290 289 289 289 289 289 288 288 288 288 287 287 286 286 286 285 285 285 284 284 283 283 282 282 281 281 281 280 280 280 280 281 280
295 294 293 292 291 290 290 290 290 289 289 289 289 288 288 288 288 288 287 287 286 286 285 285 285 285 285 284 283 282 282 281 281 281 280 280 280 280 280 280 280 280
294 293 292 291 290 290 289 289 289 289 289 288 288 288 288 288 288 287 287 286 286 285 285 285 285 285 284 283 283 282 281 281 281 280 280 280 279 280 280 280 280 280
293 292 291 290 289 289 289 289 289 289 288 288 288 288 288 287 287 287 287 286 285 285 285 285 285 284 284 283 282 281 281 280 280 280 280 279 280 280 280 280 280 280
293 292 291 290 289 288 288 289 289 288 288 288 287 287 287 287 287 287 286 286 285 285 285 285 284 284 283 282 281 281 280 280 280 279 279 280 280 280 280 280 280 279
293 292 291 290 289 288 288 288 289 288 287 287 287 287 287 287 287 286 286 286 286 285 285 285 284 283 283 282 281 280 280 280 279 279 279 280 280 280 279 279 280 279
293 292 291 290 289 288 288 289 288 288 287 287 287 287 287 287 286 286 286 286 286 285 285 284 283 283 282 281 281 280 279 279 279 279 279 280 280 279 279 279 279 279
293 292 291 290 289 289 288 288 288 287 287 287 287 287 287 286 287 287 287 287 286 285 284 284 283 282 281 281 280 279 279 279 279 279 280 280 279 279 278 279 278 277
293 292 291 290 289 289 288 288 288 287 287 287 287 287 287 287 287 287 287 286 285 284 284 283 282 281 281 280 279 279 279 279 279 279 279 279 278 278 278 277 277 276
293 292 291 290 289 288 288 288 287 287 287 287 286 287 287 288 288 287 286 285 284 284 283 282 281 281 280 280 279 278 278 279 279 279 279 278 278 277 276 276 275 275
Wind_Speed
46 48 49 49 49 47 45 43 41 40 38 38 36 34 32 29 27 25 23 22 21 21 20 20 21 22 23 25 26 27 27 27 26 25 25 26 26 27 28 29 30 30
46 48 49 49 49 48 47 45 42 40 39 38 36 34 32 30 28 25 23 22 21 21 21 21 22 23 24 25 26 27 27 26 25 24 25 26 26 27 29 29 30 31
45 48 49 50 50 49 48 46 43 41 39 38 36 35 33 30 28 25 24 23 22 21 21 22 23 24 25 26 27 27 26 25 24 24 25 26 27 28 29 30 31 31
44 46 48 50 50 50 49 47 45 43 41 39 37 35 33 31 28 26 25 24 22 22 22 22 23 24 25 26 26 26 25 25 24 25 26 27 27 29 29 30 31 32
42 44 47 49 50 50 50 48 46 44 42 40 38 36 34 32 29 28 26 24 23 22 23 23 24 25 26 26 26 25 25 25 24 25 27 28 28 29 29 30 32 32
42 44 46 48 50 50 51 49 47 45 42 40 39 37 35 32 30 28 26 24 23 23 24 24 24 25 25 25 25 25 24 24 25 25 27 28 29 29 29 30 32 33
44 45 46 48 49 50 51 49 47 45 43 41 39 38 36 33 31 28 26 24 24 24 24 24 25 25 25 25 24 24 24 24 25 26 28 29 29 30 30 31 32 33
46 46 47 48 49 50 50 49 48 45 43 42 40 39 36 33 31 28 26 25 24 25 25 25 25 25 24 24 24 24 24 25 26 27 29 30 30 31 31 31 33 34
49 48 48 48 49 49 50 49 48 46 44 43 41 39 36 33 31 28 26 25 25 25 25 25 25 24 23 23 23 24 24 25 26 28 29 30 31 31 31 32 33 34
50 50 49 49 49 50 49 49 48 46 45 43 41 39 36 33 31 29 27 26 26 26 25 25 25 24 23 23 23 24 24 26 27 29 30 30 31 31 32 32 33 34
51 51 51 50 50 50 49 49 48 47 45 43 41 39 36 34 31 29 27 26 26 26 26 25 25 23 23 23 23 23 25 26 28 29 30 31 31 32 32 33 33 35
52 52 52 51 51 51 50 49 48 47 45 43 41 39 36 34 32 29 27 27 27 26 26 25 24 23 23 22 22 23 25 27 29 30 31 31 32 32 33 33 34 35
52 52 52 52 52 52 50 50 48 47 45 43 41 39 36 34 32 29 28 27 27 27 26 25 23 22 22 22 22 23 25 28 29 30 31 32 32 33 33 33 34 35
52 52 52 52 52 52 51 50 49 47 45 43 41 39 36 34 31 29 28 28 28 26 25 24 22 22 22 21 22 24 26 28 30 30 31 31 32 33 34 34 35 36
52 52 52 52 52 52 51 50 49 47 45 43 41 39 36 34 32 30 29 29 27 26 25 23 22 21 21 21 22 24 26 28 30 30 31 32 33 34 34 35 35 37
52 52 52 53 53 53 52 51 50 48 46 43 41 39 36 34 32 31 30 29 27 25 24 22 21 20 20 20 22 24 27 29 30 30 30 31 33 33 34 35 35 36
52 53 53 53 54 53 52 51 50 48 46 43 41 38 36 34 32 31 30 28 26 25 23 21 20 20 20 21 22 24 27 29 30 30 30 30 32 33 34 35 35 35
52 53 53 54 54 53 52 51 49 47 45 42 40 39 36 34 32 31 29 27 26 24 22 20 20 20 20 21 22 23 25 27 29 29 29 30 31 32 34 34 35 35
51 52 53 53 53 52 51 50 48 47 44 42 41 39 36 34 32 30 28 26 25 23 20 19 20 20 20 21 22 23 24 26 28 28 28 29 30 32 33 33 33 35
50 51 52 52 52 51 50 49 47 46 44 42 40 38 36 33 31 29 27 26 24 21 19 20 20 20 20 21 21 23 24 25 27 27 27 29 30 31 32 32 32 33
49 50 51 52 52 51 49 48 47 45 44 42 40 37 35 32 30 27 25 24 22 21 21 21 20 20 20 21 21 22 24 25 26 27 27 29 31 31 31 31 31 33
49 50 52 52 51 50 49 48 47 46 45 42 40 37 34 31 28 26 24 23 22 22 23 21 20 20 20 20 21 22 23 25 26 26 27 28 30 31 30 30 32 33
49 50 51 51 51 50 49 49 48 47 45 43 40 37 33 29 27 25 23 22 23 24 24 22 19 19 19 20 20 20 22 24 25 25 26 28 29 29 30 31 33 33
49 50 50 50 50 50 49 49 49 47 45 42 39 35 31 27 25 24 23 24 25 25 25 22 19 18 19 20 19 19 21 23 24 24 25 27 27 28 30 32 33 33
48 49 49 49 48 48 48 49 49 47 44 41 37 33 29 26 25 24 24 25 25 25 24 22 18 17 18 19 18 18 20 21 22 23 24 25 27 29 30 32 33 34
47 48 47 47 46 46 47 48 48 46 44 40 35 32 29 27 26 25 25 25 25 25 23 20 18 18 18 18 17 17 18 19 20 21 23 25 27 29 31 32 34 35
Wind_Direction
240 239 238 238 238 239 238 238 238 237 237 237 237 238 239 240 242 244 247 250 254 258 263 268 275 281 287 294 299 302 304 305 307 308 306 305 306 307 308 309 310 310
240 239 238 238 238 238 238 238 238 238 238 237 237 237 238 240 241 244 247 250 253 258 262 268 274 280 287 293 297 300 301 303 305 305 303 305 307 308 308 308 309 311
241 239 239 238 238 237 237 238 238 237 237 237 236 237 238 239 241 244 246 249 252 256 261 267 273 280 287 292 296 298 300 302 303 303 303 306 307 306 307 308 310 311
242 241 240 239 239 238 237 237 237 237 236 236 235 236 237 239 240 242 245 247 251 256 262 267 273 280 287 291 294 297 299 300 301 303 303 305 305 305 307 308 310 311
243 242 240 239 238 237 237 236 237 237 236 236 235 235 236 237 239 241 244 247 251 257 262 267 274 281 286 290 292 295 297 299 301 302 302 303 304 304 307 308 309 309
241 241 240 238 237 237 236 236 236 236 236 236 235 235 235 236 238 240 243 247 252 257 262 267 274 280 285 288 291 294 296 299 300 300 300 301 302 304 306 307 306 307
239 239 239 238 236 236 236 236 236 236 235 235 234 234 235 235 237 240 243 247 253 257 262 268 275 280 285 288 291 293 296 297 298 298 299 300 302 304 305 306 306 307
238 237 237 237 236 235 235 234 234 234 234 234 233 233 234 235 236 239 243 247 253 258 262 269 275 279 283 287 290 292 294 295 296 297 299 301 303 304 305 306 306 307
235 235 236 237 236 235 234 233 233 233 233 232 233 233 233 234 236 239 243 247 253 258 263 270 275 278 282 286 288 290 292 294 296 298 300 301 303 304 305 307 307 309
234 235 236 236 236 236 234 232 231 230 231 231 232 233 233 234 236 239 243 248 253 258 264 270 273 277 281 284 286 289 292 294 296 298 299 301 302 304 306 308 308 310
233 234 235 236 236 235 233 231 230 229 229 230 230 232 232 234 236 239 243 248 254 259 265 269 272 276 280 283 287 290 293 295 296 298 299 300 302 304 307 309 311 313
233 234 236 236 236 234 232 230 228 228 228 228 229 231 232 234 236 239 244 249 254 259 264 268 271 276 279 283 287 291 293 294 296 297 298 300 303 306 309 311 313 315
234 236 236 235 234 233 230 228 227 226 226 227 228 230 231 234 236 240 244 250 254 259 264 267 270 275 279 283 288 291 292 293 295 297 299 302 305 307 310 312 314 316
235 235 234 233 232 231 229 226 225 225 225 226 227 229 231 233 236 241 245 250 255 259 263 266 270 274 279 284 288 290 292 293 296 298 300 304 306 308 311 314 317 318
233 231 231 231 230 229 227 225 224 224 224 224 225 227 229 232 236 240 246 250 254 258 261 264 269 274 279 285 288 290 292 293 296 298 301 305 308 310 314 316 318 317
231 230 230 230 229 228 226 225 223 223 222 223 224 225 228 231 235 240 245 250 253 257 260 263 269 274 279 285 288 291 293 294 296 299 303 307 309 312 314 316 317 315
231 230 229 229 228 227 226 224 222 221 221 222 222 224 226 229 234 240 245 249 253 255 258 262 268 274 279 284 288 291 294 295 297 301 305 307 309 311 313 315 315 314
231 229 228 228 227 226 225 223 221 220 220 221 221 223 225 228 234 240 244 249 251 253 257 262 268 275 279 285 288 291 293 295 297 300 304 307 309 310 312 313 314 314
230 228 227 227 226 225 224 221 220 219 219 220 220 222 225 228 234 239 244 247 250 252 256 262 268 273 279 284 288 290 292 293 295 299 302 305 307 307 309 311 313 315
229 228 227 226 225 224 222 220 219 219 218 218 219 221 224 228 234 239 243 246 249 253 257 261 266 272 278 284 286 289 291 292 294 298 301 303 304 305 308 312 314 316
229 227 227 226 225 223 221 219 218 218 218 217 218 221 224 229 234 238 242 246 250 255 258 261 266 271 277 282 285 287 290 292 294 296 299 302 303 306 309 313 315 317
230 228 227 226 225 222 219 217 217 216 216 217 218 220 224 228 233 236 241 246 251 256 259 260 264 270 275 280 283 287 290 291 293 296 299 302 304 307 311 314 317 320
231 229 228 226 224 221 218 217 216 215 215 215 217 220 223 227 232 236 241 248 253 255 258 259 262 268 274 278 283 287 289 290 293 297 300 303 306 310 313 316 320 323
232 230 229 227 224 221 218 216 214 214 214 215 216 219 222 226 232 237 243 248 251 253 256 259 262 267 273 277 282 286 287 289 294 299 302 306 310 314 317 320 322 322
232 230 229 227 224 221 218 215 214 213 213 214 215 217 221 226 232 238 243 245 248 251 255 259 262 267 271 275 280 282 285 290 297 302 306 310 315 319 321 321 319 319
231 229 228 226 223 220 217 215 214 213 212 212 213 215 220 227 232 236 241 244 246 250 254 258 262 266 270 274 278 281 286 293 300 305 310 316 321 322 320 318 318 320